This demonstration page uses our WeatherBlox Daily Observations layout. Learn more.

Left ArrowRight Arrow

Hourly Observations for July 27, 2022

Temp ( °F °C ) Dew Point ( °F °C ) Humidity (%) Winds ( mph kmh ) Pressure ( in mb ) Visibility ( mi km ) Precip ( " mm )
12:53 am 00:53 Clear 60 15.6 44 6.7 56 56 NE 5 7 29.94 1014 10 16 0.00 0.00
1:53 am 01:53 Clear 56 13.3 44 6.7 65 65 E 3 6 29.95 1014 10 16 0.00 0.00
2:53 am 02:53 Clear 54 12.2 45 7.2 72 72 ESE 3 6 29.96 1015 10 16 0.00 0.00
3:53 am 03:53 Clear 53 11.7 43 6.1 69 69 Calm 29.97 1015 10 16 0.00 0.00
4:53 am 04:53 Clear 51 10.6 43 6.1 74 74 Calm 29.98 1015 10 16 0.00 0.00
5:53 am 05:53 Clear 48 8.9 42 5.6 80 80 Calm 30.00 1016 10 16 0.00 0.00
6:53 am 06:53 Sunny 53 11.7 45 7.2 74 74 Calm 30.01 1016 10 16 0.00 0.00
7:53 am 07:53 Sunny 60 15.6 45 7.2 58 58 Calm 30.02 1017 10 16 0.00 0.00
8:53 am 08:53 Sunny 68 20 47 8.3 47 47 NNE 3 6 30.01 1016 10 16 0.00 0.00
9:53 am 09:53 Sunny 77 25 48 8.9 36 36 NNE 5 7 29.99 1016 10 16 0.00 0.00
10:53 am 10:53 Sunny 80 26.7 49 9.4 34 34 WNW 6 9 30.01 1016 10 16 0.00 0.00
11:53 am 11:53 Sunny 85 29.4 48 8.9 28 28 NNW 7 11 29.99 1016 10 16 0.00 0.00
12:53 pm 12:53 Sunny 87 30.6 45 7.2 23 23 NNW 8 13 29.96 1015 10 16 0.00 0.00
1:53 pm 13:53 Sunny 89 31.7 42 5.6 19 19 Calm 29.95 1014 10 16 0.00 0.00
2:53 pm 14:53 Sunny 91 32.8 37 2.8 15 15 WNW 8 13 29.92 1013 10 16 0.00 0.00
3:53 pm 15:53 Sunny 91 32.8 37 2.8 15 15 NNW 5 7 29.90 1013 10 16 0.00 0.00
4:53 pm 16:53 Sunny 92 33.3 36 2.2 14 14 WNW 7 11 29.89 1012 10 16 0.00 0.00
5:53 pm 17:53 Sunny 91 32.8 36 2.2 14 14 NNE 7 11 29.89 1012 10 16 0.00 0.00
6:53 pm 18:53 Sunny 89 31.7 38 3.3 16 16 NNW 6 9 29.89 1012 10 16 0.00 0.00
7:53 pm 19:53 Sunny 79 26.1 45 7.2 30 30 Calm 29.90 1013 10 16 0.00 0.00
8:53 pm 20:53 Clear 70 21.1 52 11.1 53 53 Calm 29.92 1013 10 16 0.00 0.00
9:53 pm 21:53 Clear 68 20 48 8.9 49 49 Calm 29.91 1013 10 16 0.00 0.00
10:53 pm 22:53 Clear 62 16.7 45 7.2 54 54 Calm 29.93 1014 10 16 0.00 0.00
11:53 pm 23:53 Clear 58 14.4 47 8.3 67 67 SSE 3 6 29.93 1014 10 16 0.00 0.00

Powered by AerisWeather